Time,TemperatureF,DewpointF,PressureIn,WindDirection,WindDirectionDegrees,WindSpeedMPH,WindSpeedGustMPH,Humidity,HourlyPrecipIn,Conditions,Clouds,dailyrainin,SolarRadiationWatts/m^2,SoftwareType,DateUTC
2013-09-02 00:04:00,66.0,65.0,-100.00,NNE,32,2.0,4.0,97,0.00,,,0.15,0.000000,,2013-09-02 04:04:00,
2013-09-02 00:14:00,66.0,65.0,-100.00,NNE,32,2.0,4.0,97,0.00,,,0.15,0.000000,,2013-09-02 04:14:00,
2013-09-02 00:44:00,65.0,64.0,-100.00,SE,145,0.0,3.0,97,0.00,,,0.15,0.000000,,2013-09-02 04:44:00,
2013-09-02 00:54:00,65.0,64.0,-100.00,SE,145,0.0,3.0,97,0.00,,,0.15,0.000000,,2013-09-02 04:54:00,
2013-09-02 01:04:00,65.0,64.0,-100.00,SE,145,0.0,3.0,97,0.00,,,0.15,0.000000,,2013-09-02 05:04:00,
2013-09-02 01:13:00,65.0,64.0,-100.00,SE,145,0.0,3.0,97,0.00,,,0.15,0.000000,,2013-09-02 05:13:00,
2013-09-02 01:44:00,65.0,64.0,-100.00,West,266,2.0,3.0,97,0.00,,,0.15,0.000000,,2013-09-02 05:44:00,
2013-09-02 01:52:00,65.0,64.0,-100.00,West,266,2.0,3.0,97,0.00,,,0.15,0.000000,,2013-09-02 05:52:00,
2013-09-02 02:03:00,65.0,64.0,-100.00,West,266,2.0,3.0,97,0.00,,,0.15,0.000000,,2013-09-02 06:03:00,
2013-09-02 02:12:00,65.0,64.0,-100.00,West,266,2.0,3.0,97,0.00,,,0.15,0.000000,,2013-09-02 06:12:00,
2013-09-02 02:43:00,65.0,64.0,-100.00,SW,233,2.0,5.0,97,0.00,,,-99.99,0.000000,,2013-09-02 06:43:00,
2013-09-02 02:52:00,65.0,64.0,-100.00,SW,233,2.0,5.0,97,0.00,,,-99.99,0.000000,,2013-09-02 06:52:00,
2013-09-02 03:01:00,65.0,64.0,-100.00,SW,233,2.0,5.0,97,0.00,,,-99.99,0.000000,,2013-09-02 07:01:00,
2013-09-02 03:11:00,65.0,64.0,-100.00,SW,233,2.0,5.0,97,0.00,,,-99.99,0.000000,,2013-09-02 07:11:00,
2013-09-02 03:42:00,64.0,63.0,-100.00,SE,124,1.0,4.0,97,0.00,,,0.15,0.000000,,2013-09-02 07:42:00,
2013-09-02 03:52:00,64.0,63.0,-100.00,SE,124,1.0,4.0,97,0.00,,,0.15,0.000000,,2013-09-02 07:52:00,
2013-09-02 04:02:00,64.0,63.0,-100.00,SE,124,1.0,4.0,97,0.00,,,0.15,0.000000,,2013-09-02 08:02:00,
2013-09-02 04:11:00,64.0,63.0,-100.00,SE,124,1.0,4.0,97,0.00,,,0.15,0.000000,,2013-09-02 08:11:00,
2013-09-02 04:42:00,64.0,63.0,-100.00,South,169,2.0,6.0,98,0.00,,,0.15,0.000000,,2013-09-02 08:42:00,
2013-09-02 04:52:00,64.0,63.0,-100.00,South,169,2.0,6.0,98,0.00,,,0.15,0.000000,,2013-09-02 08:52:00,
2013-09-02 05:01:00,64.0,63.0,-100.00,South,169,2.0,6.0,98,0.00,,,0.15,0.000000,,2013-09-02 09:01:00,
2013-09-02 05:12:00,64.0,63.0,-100.00,South,169,2.0,6.0,98,0.00,,,0.15,0.000000,,2013-09-02 09:12:00,
2013-09-02 05:44:00,65.0,64.0,-100.00,East,99,1.0,4.0,98,0.00,,,0.15,0.000000,,2013-09-02 09:44:00,
2013-09-02 05:53:00,65.0,64.0,-100.00,East,99,1.0,4.0,98,0.00,,,0.15,0.000000,,2013-09-02 09:53:00,
2013-09-02 06:03:00,65.0,64.0,-100.00,East,99,1.0,4.0,98,0.00,,,0.15,0.000000,,2013-09-02 10:03:00,
2013-09-02 06:13:00,65.0,64.0,-100.00,East,99,1.0,4.0,98,0.00,,,0.15,0.000000,,2013-09-02 10:13:00,
2013-09-02 06:43:00,65.0,64.0,-100.00,SSE,159,2.0,5.0,98,0.00,,,0.15,0.000000,,2013-09-02 10:43:00,
2013-09-02 06:53:00,65.0,64.0,-100.00,SSE,159,2.0,5.0,98,0.00,,,0.15,0.000000,,2013-09-02 10:53:00,
2013-09-02 07:03:00,65.0,64.0,-100.00,SSE,159,2.0,5.0,98,0.00,,,0.15,0.000000,,2013-09-02 11:03:00,
2013-09-02 07:12:00,65.0,64.0,-100.00,SSE,159,2.0,5.0,98,0.00,,,0.15,0.000000,,2013-09-02 11:12:00,
2013-09-02 07:42:00,65.0,64.0,-100.00,West,265,2.0,4.0,98,0.00,,,0.15,3.000000,,2013-09-02 11:42:00,
2013-09-02 07:52:00,65.0,64.0,-100.00,West,265,2.0,4.0,98,0.00,,,0.15,3.000000,,2013-09-02 11:52:00,
2013-09-02 08:02:00,65.0,64.0,-100.00,West,265,2.0,4.0,98,0.00,,,0.15,3.000000,,2013-09-02 12:02:00,
2013-09-02 08:12:00,65.0,64.0,-100.00,West,265,2.0,4.0,98,0.00,,,0.15,3.000000,,2013-09-02 12:12:00,
2013-09-02 08:43:00,66.0,65.0,-100.00,WSW,254,1.0,4.0,98,0.01,,,0.16,48.000000,,2013-09-02 12:43:00,
2013-09-02 08:52:00,66.0,65.0,-100.00,WSW,254,1.0,4.0,98,0.01,,,0.16,48.000000,,2013-09-02 12:52:00,
2013-09-02 09:02:00,66.0,65.0,-100.00,WSW,254,1.0,4.0,98,0.01,,,0.16,48.000000,,2013-09-02 13:02:00,
2013-09-02 09:11:00,66.0,65.0,-100.00,WSW,254,1.0,4.0,98,0.01,,,0.16,48.000000,,2013-09-02 13:11:00,
2013-09-02 09:42:00,68.0,67.0,-100.00,North,356,2.0,6.0,97,0.00,,,0.16,180.000000,,2013-09-02 13:42:00,
2013-09-02 09:52:00,68.0,67.0,-100.00,North,356,2.0,6.0,97,0.00,,,0.16,180.000000,,2013-09-02 13:52:00,
2013-09-02 10:02:00,68.0,67.0,-100.00,North,356,2.0,6.0,97,0.00,,,0.16,180.000000,,2013-09-02 14:02:00,
2013-09-02 10:11:00,68.0,67.0,-100.00,North,356,2.0,6.0,97,0.00,,,0.16,180.000000,,2013-09-02 14:11:00,
2013-09-02 10:43:00,72.0,70.0,-100.00,West,280,3.0,7.0,93,0.00,,,0.16,285.000000,,2013-09-02 14:43:00,
2013-09-02 10:52:00,72.0,70.0,-100.00,West,280,3.0,7.0,93,0.00,,,0.16,285.000000,,2013-09-02 14:52:00,
2013-09-02 11:02:00,72.0,70.0,-100.00,West,280,3.0,7.0,93,0.00,,,0.16,285.000000,,2013-09-02 15:02:00,
2013-09-02 11:12:00,72.0,70.0,-100.00,West,280,3.0,7.0,93,0.00,,,0.16,285.000000,,2013-09-02 15:12:00,
2013-09-02 11:45:00,73.0,68.0,-100.00,NW,313,3.0,10.0,85,0.00,,,0.16,328.000000,,2013-09-02 15:45:00,
2013-09-02 11:55:00,73.0,68.0,-100.00,NW,313,3.0,10.0,85,0.00,,,0.16,328.000000,,2013-09-02 15:55:00,
2013-09-02 12:04:00,73.0,68.0,-100.00,NW,313,3.0,10.0,85,0.00,,,0.16,328.000000,,2013-09-02 16:04:00,
2013-09-02 12:14:00,73.0,68.0,-100.00,NW,313,3.0,10.0,85,0.00,,,0.16,328.000000,,2013-09-02 16:14:00,
2013-09-02 12:43:00,74.0,68.0,-100.00,West,265,4.0,10.0,82,0.00,,,0.16,337.000000,,2013-09-02 16:43:00,
2013-09-02 12:53:00,74.0,68.0,-100.00,West,265,4.0,10.0,82,0.00,,,0.16,337.000000,,2013-09-02 16:53:00,
2013-09-02 13:03:00,74.0,68.0,-100.00,West,265,4.0,10.0,82,0.00,,,0.16,337.000000,,2013-09-02 17:03:00,
2013-09-02 13:13:00,74.0,68.0,-100.00,West,265,4.0,10.0,82,0.00,,,0.16,337.000000,,2013-09-02 17:13:00,
2013-09-02 13:45:00,74.0,66.0,-100.00,WNW,283,3.0,11.0,77,0.00,,,-99.99,411.000000,,2013-09-02 17:45:00,
2013-09-02 13:52:00,74.0,66.0,-100.00,WNW,283,3.0,11.0,77,0.00,,,-99.99,411.000000,,2013-09-02 17:52:00,
2013-09-02 14:02:00,74.0,66.0,-100.00,WNW,283,3.0,11.0,77,0.00,,,-99.99,411.000000,,2013-09-02 18:02:00,
2013-09-02 14:13:00,74.0,66.0,-100.00,WNW,283,3.0,11.0,77,0.00,,,-99.99,411.000000,,2013-09-02 18:13:00,
2013-09-02 14:42:00,78.0,68.0,-100.00,West,274,4.0,10.0,72,0.00,,,0.09,533.000000,,2013-09-02 18:42:00,
2013-09-02 14:52:00,78.0,68.0,-100.00,West,274,4.0,10.0,72,0.00,,,0.09,533.000000,,2013-09-02 18:52:00,
2013-09-02 15:02:00,78.0,68.0,-100.00,West,274,4.0,10.0,72,0.00,,,0.09,533.000000,,2013-09-02 19:02:00,
2013-09-02 15:12:00,78.0,68.0,-100.00,West,274,4.0,10.0,72,0.00,,,0.09,533.000000,,2013-09-02 19:12:00,
2013-09-02 15:42:00,79.0,66.0,-100.00,WSW,241,4.0,11.0,64,0.00,,,0.09,539.000000,,2013-09-02 19:42:00,
2013-09-02 15:52:00,79.0,66.0,-100.00,WSW,241,4.0,11.0,64,0.00,,,0.09,539.000000,,2013-09-02 19:52:00,
2013-09-02 16:02:00,79.0,66.0,-100.00,WSW,241,4.0,11.0,64,0.00,,,0.09,539.000000,,2013-09-02 20:02:00,
2013-09-02 16:12:00,79.0,66.0,-100.00,WSW,241,4.0,11.0,64,0.00,,,0.09,539.000000,,2013-09-02 20:12:00,
2013-09-02 16:42:00,80.0,66.0,-100.00,West,260,5.0,14.0,62,0.00,,,0.09,578.000000,,2013-09-02 20:42:00,
2013-09-02 16:52:00,80.0,66.0,-100.00,West,260,5.0,14.0,62,0.00,,,0.09,578.000000,,2013-09-02 20:52:00,
2013-09-02 17:02:00,80.0,66.0,-100.00,West,260,5.0,14.0,62,0.00,,,0.09,578.000000,,2013-09-02 21:02:00,
2013-09-02 17:12:00,80.0,66.0,-100.00,West,260,5.0,14.0,62,0.00,,,0.09,578.000000,,2013-09-02 21:12:00,
2013-09-02 17:44:00,80.0,64.0,-100.00,NW,314,4.0,10.0,58,0.00,,,0.09,444.000000,,2013-09-02 21:44:00,
2013-09-02 17:55:00,80.0,64.0,-100.00,NW,314,4.0,10.0,58,0.00,,,0.09,444.000000,,2013-09-02 21:55:00,
2013-09-02 18:04:00,80.0,64.0,-100.00,NW,314,4.0,10.0,58,0.00,,,0.09,444.000000,,2013-09-02 22:04:00,
2013-09-02 18:13:00,80.0,64.0,-100.00,NW,314,4.0,10.0,58,0.00,,,0.09,444.000000,,2013-09-02 22:13:00,
2013-09-02 18:44:00,78.0,63.0,-100.00,NNW,330,3.0,11.0,61,0.00,,,0.07,282.000000,,2013-09-02 22:44:00,
2013-09-02 18:54:00,78.0,63.0,-100.00,NNW,330,3.0,11.0,61,0.00,,,0.07,282.000000,,2013-09-02 22:54:00,
2013-09-02 19:03:00,78.0,63.0,-100.00,NNW,330,3.0,11.0,61,0.00,,,0.07,282.000000,,2013-09-02 23:03:00,
2013-09-02 19:12:00,78.0,63.0,-100.00,NNW,330,3.0,11.0,61,0.00,,,0.07,282.000000,,2013-09-02 23:12:00,
2013-09-02 19:42:00,74.0,65.0,-100.00,North,3,2.0,6.0,73,0.00,,,0.02,70.000000,,2013-09-02 23:42:00,
2013-09-02 19:53:00,74.0,65.0,-100.00,North,3,2.0,6.0,73,0.00,,,0.02,70.000000,,2013-09-02 23:53:00,
2013-09-02 20:02:00,74.0,65.0,-100.00,North,3,2.0,6.0,73,0.00,,,0.02,70.000000,,2013-09-03 00:02:00,
2013-09-02 20:12:00,74.0,65.0,-100.00,North,3,2.0,6.0,73,0.00,,,0.02,70.000000,,2013-09-03 00:12:00,
2013-09-02 20:42:00,71.0,64.0,-100.00,SE,130,1.0,5.0,78,0.00,,,0.01,17.000000,,2013-09-03 00:42:00,
2013-09-02 20:52:00,71.0,64.0,-100.00,SE,130,1.0,5.0,78,0.00,,,0.01,17.000000,,2013-09-03 00:52:00,
2013-09-02 21:02:00,71.0,64.0,-100.00,SE,130,1.0,5.0,78,0.00,,,0.01,17.000000,,2013-09-03 01:02:00,
2013-09-02 21:11:00,71.0,64.0,-100.00,SE,130,1.0,5.0,78,0.00,,,0.01,17.000000,,2013-09-03 01:11:00,
2013-09-02 21:42:00,71.0,65.0,-100.00,SE,132,2.0,5.0,82,0.00,,,0.01,0.000000,,2013-09-03 01:42:00,
2013-09-02 21:52:00,71.0,65.0,-100.00,SE,132,2.0,5.0,82,0.00,,,0.01,0.000000,,2013-09-03 01:52:00,
2013-09-02 22:02:00,71.0,65.0,-100.00,SE,132,2.0,5.0,82,0.00,,,0.01,0.000000,,2013-09-03 02:02:00,
2013-09-02 22:12:00,71.0,65.0,-100.00,SE,132,2.0,5.0,82,0.00,,,0.01,0.000000,,2013-09-03 02:12:00,
2013-09-02 22:42:00,68.0,66.0,-100.00,SSE,156,2.0,4.0,92,0.00,,,0.01,0.000000,,2013-09-03 02:42:00,
2013-09-02 22:52:00,68.0,66.0,-100.00,SSE,156,2.0,4.0,92,0.00,,,0.01,0.000000,,2013-09-03 02:52:00,
2013-09-02 23:02:00,68.0,66.0,-100.00,SSE,156,2.0,4.0,92,0.00,,,0.01,0.000000,,2013-09-03 03:02:00,
2013-09-02 23:11:00,68.0,66.0,-100.00,SSE,156,2.0,4.0,92,0.00,,,0.01,0.000000,,2013-09-03 03:11:00,
2013-09-02 23:45:00,67.0,66.0,-100.00,SSW,194,2.0,6.0,95,0.00,,,0.01,0.000000,,2013-09-03 03:45:00,
2013-09-02 23:55:00,67.0,66.0,-100.00,SSW,194,2.0,6.0,95,0.00,,,0.01,0.000000,,2013-09-03 03:55:00,